Погода в Обидимо

Россия / Тульская область     54°18′12″N   37°24′13″E
темп.,
°C
ветер,
м/с
пор.,
м/с
влажн.,
%
обл.,
%
осадки,
мм/ч
давл.,
гПа
погр.,
м
9 мая, вс
вс900:00+8з5896100 0.1 1002456
03:00+6сз61094100 0.1 1005596
06:00+4сз71196100 0.3 1007772
09:00+3сз71496100 0.6 1010786
12:00+4сз71396100 0.5 1013930
15:00+7сз81378100 1.4 10151454
18:00+8сз61167100 0.1 10171292
21:00+5сз4117910 0.3 1019297
10 мая, пн
пн1000:00+3сз412825 0.0 1021279
03:00+3ссз413795 0.0 1024309
06:00+3с412780 0.0 1026316
09:00+8с610520 0.0 10261018
12:00+11ссв79460 0.0 10261462
15:00+12ссв79465 0.0 10261498
18:00+11ссв61057100 0.0 10261113
21:00+7ссв51371100 0.0 1027395
11 мая, вт
вт1100:00+7ссв51468100 0.0 1026392
03:00+6ссв5147746 0.0 1026339
06:00+7св6148133 0.0 1026390
09:00+12св7127319 0.0 1026514
12:00+16всв7106711 0.0 1025894
15:00+18всв71066100 0.1 10241490
18:00+16в5982100 1.8 1025662
21:00+12ююв23964 3.6 1025122
12 мая, ср
ср1200:00+10вюв119385 0.0 102613
03:00+10зюз2393100 0.4 1025107
06:00+8зсз2396100 2.1 1025127
09:00+9всв2395100 3.9 1024185
12:00+13вюв4676100 0.1 1024873
15:00+12в5783100 0.2 1023680
18:00+13вюв4985100 0.0 1021794
21:00+11вюв4897100 0.1 1021448
13 мая, чт
чт1300:00+10вюв3897100 0.0 1021222
03:00+9вюв399657 0.0 1020208
06:00+10вюв399393 0.0 1021272
09:00+15юв46725 0.0 1020594
12:00+18юв565851 0.0 10201414
15:00+20юв465360 0.0 10191762
18:00+19юв476312 0.0 1018601
21:00+15вюв2278100 0.0 101825